This is the latest recevied weather packets stored in our database for station/object EA1BQO-1. If no packets are shown the sender has not sent any weather packets the latest 10 day(s).
| Time | Temp. | Humidity | Pressure | Rain* | Wind** | Luminosity | Snow |
|---|---|---|---|---|---|---|---|
| 1777963604 | 7.78° C | 98% | 1011.1 hPa | 0 mm | - | - | - |
| 1777963004 | 7.78° C | 99% | 1011.1 hPa | 0 mm | - | - | - |
| 1777962403 | 7.22° C | 99% | 1011.1 hPa | 0 mm | - | - | - |
| 1777961803 | 6.67° C | 99% | 1011 hPa | 0 mm | - | - | - |
| 1777961204 | 6.11° C | 99% | 1010.9 hPa | 0 mm | - | - | - |
| 1777960603 | 6.11° C | 99% | 1011 hPa | 0 mm | - | - | - |
| 1777960003 | 6.11° C | 99% | 1010.8 hPa | 0 mm | - | - | - |
| 1777959403 | 6.11° C | 99% | 1010.9 hPa | 0 mm | - | - | - |
| 1777959234 | 6.11° C | 99% | 1010.8 hPa | 0 mm | - | - | - |
| 1777958634 | 6.11° C | 99% | 1010.9 hPa | 0 mm | - | - | - |
| 1777958034 | 6.11° C | 99% | 1010.8 hPa | 0 mm | - | - | - |
| 1777957433 | 6.11° C | 99% | 1010.7 hPa | 0 mm | - | - | - |
| 1777956833 | 6.11° C | 99% | 1010.8 hPa | 0 mm | - | - | - |
| 1777956233 | 6.67° C | 99% | 1010.9 hPa | 0 mm | - | - | - |
| 1777955633 | 6.67° C | 99% | 1010.9 hPa | 0 mm | - | - | - |
| 1777955033 | 6.67° C | 99% | 1010.9 hPa | 0 mm | - | - | - |
| 1777954433 | 7.22° C | 99% | 1010.9 hPa | 0 mm | - | - | - |
| 1777953833 | 7.22° C | 99% | 1011 hPa | 0 mm | - | - | - |
| 1777953233 | 6.67° C | 99% | 1011.1 hPa | 0 mm | - | - | - |
| 1777952633 | 6.67° C | 99% | 1011 hPa | 0 mm | - | - | - |
| 1777952033 | 6.67° C | 99% | 1011.1 hPa | 0 mm | - | - | - |
| 1777951433 | 6.67° C | 99% | 1011.1 hPa | 0 mm | - | - | - |
| 1777950833 | 6.67° C | 99% | 1011.1 hPa | 0 mm | - | - | - |
| 1777950233 | 6.67° C | 99% | 1011 hPa | 0 mm | - | - | - |
| 1777949633 | 6.67° C | 99% | 1011.1 hPa | 0 mm | - | - | - |
* Rain latest hour (hover to see other rain measurements)
** Current wind speed in m/s (hover to see current wind gust speed)